Flag for Canada Weather past 2 weeks in Strathcona County, Alberta, Canada

Now
51 °F

Cool.


Feels Like: 48 °F
Forecast: 47 / 67 °F
Wind: 7 mph from Northeast

Location: Edmonton Municipal

Current Time: Sep 2, 2015 at 7:19:00 AM

Latest Report: Sep 2, 2015 at 7:00 AM


Visibility: N/A

Pressure: 29.59 "Hg (27.10 "Hg at 728m altitude)

Humidity: 70%

Dew point: 41 °F

Location of Strathcona CountyLocation

Historic Weather in Strathcona County — Graph

°F

Strathcona County temperature yesterday

Maximum temperature yesterday: 68 °F (at 3:00 PM)
Minimum temperature yesterday: 51 °F (at 7:00 AM)
Average temperature yesterday: 59 °F

Past Weeks' High & Low Weather Summary

 TemperatureHumidityPressure
High83 °F (Aug 28, 5:00 PM)95% (Aug 18, 6:00 AM)30.19 "Hg (Aug 18, 6:00 AM)
Low43 °F (Aug 22, 4:00 AM)20% (Aug 31, 3:00 PM)29.40 "Hg (Aug 29, 9:00 PM)
Average62 °F56%29.82 "Hg
* Reported Aug 18 6:00 AM — Sep 2 6:00 AM, Strathcona County, Weather by CustomWeather, © 2015

Note: Actual official high and low records may vary slightly from our data, if they occured in-between our weather recording intervals... More about our weather records

Advertising

Strathcona County weather history for previous 24 hours

 ConditionsComfort  
Time TempWeatherWind HumidityBarometerVisibility
6:00 AM
Wed, Sep 2
51 °FCool.10 mph74%29.59 "HgN/A
5:00 AM54 °FCool.14 mph67%29.60 "HgN/A
4:00 AM53 °FCool.13 mph68%29.59 "HgN/A
3:00 AM53 °FCool.9 mph69%29.61 "HgN/A
2:00 AM53 °FCool.9 mph71%29.62 "HgN/A
1:00 AM53 °FCool.12 mph74%29.63 "HgN/A
12:00 AM53 °FCool.9 mph76%29.67 "HgN/A
11:00 PM
Tue, Sep 1
53 °FCool.8 mph78%29.69 "HgN/A
10:00 PM58 °FRefreshingly cool.9 mph47%29.70 "HgN/A
9:00 PM58 °FRefreshingly cool.7 mph44%29.70 "HgN/A
8:00 PM61 °FRefreshingly cool.8 mph38%29.69 "HgN/A
7:00 PM64 °FMild.3 mph34%29.70 "HgN/A
6:00 PM66 °FMild.5 mph28%29.69 "HgN/A
5:00 PM67 °FMild.5 mph29%29.67 "HgN/A
4:00 PM67 °FMild.2 mph27%29.66 "HgN/A
3:00 PM68 °FMild.9 mph28%29.66 "HgN/A
2:00 PM66 °FMild.12 mph29%29.66 "HgN/A
1:00 PM66 °FMild.10 mph34%29.65 "HgN/A
12:00 PM63 °FMild.13 mph39%29.64 "HgN/A
11:00 AM61 °FRefreshingly cool.12 mph46%29.62 "HgN/A
10:00 AM58 °FRefreshingly cool.7 mph58%29.61 "HgN/A
9:00 AM54 °FCool.9 mph69%29.58 "HgN/A
8:00 AM52 °FCool.10 mph75%29.55 "HgN/A
7:00 AM51 °FCool.13 mph75%29.53 "HgN/A
Weather by CustomWeather, © 2015

See weather overviewHow to use our weather pages